SKYSAT-C10 (42988 NORAD) Tracking and Keplerian Element Data

This shows tracking and keplerian element data for the satellite.

Feedback or suggestion? Click here.




ElementValue
Catalog42988
NameSKYSAT-C10
Epoch Orbit8135
Epoch Day110.23936188
Epoch Year2019
RAAN224.5416
Inclination97.4204
Eccentricity0.0006159
Argument of Perigee88.7459
Mean Anonmoly330.5734
Mean Motion15.2167438
Decay Rate7.16E-06
L11 42988U 17068B 19110.23936188 .00000716 00000-0 34702-4 0 9999
L22 42988 97.4204 224.5416 0006159 88.7459 330.5734 15.21674380 81354

Live tracking and technical data element details for SKYSAT-C10 (NORAD 42988). SKYSAT-C10 can be tracked NOW for your location showing map with azimuth and elevation plus other details from your city location.

Track the satellite on the map from your city or location and see movement details for azimuth, elevation, latitude, longitude, range, height, and movement on the map or in text.







IsCatalogInMostPopularTable: catalog: 42988, numindb: 231
Update: records affected: 1



GetName: 42988 SKYSAT-C10

Hit Count: updated at: Sat, 20 Apr 2019 20:37:20 GMT